Weather History for Lexington, NC

Change the Weather History Date:

Thursday, February 21, 2013

  Actual Average (KINT) Record (KINT)
Temperature  
Mean Temperature 38 °F -  
Max Temperature 55 °F 51 °F 72 °F (2011)
Min Temperature 21 °F 33 °F 13 °F (1970)
Degree Days  
Heating Degree Days 28    
Moisture  
Dew Point 17 °F    
Average Humidity 44    
Maximum Humidity 86    
Minimum Humidity 21    
Precipitation  
Precipitation 0.00 in - - ()
Sea Level Pressure  
Sea Level Pressure 30.15 in    
Wind  
Wind Speed 2 mph (NE)    
Max Wind Speed 10 mph    
Max Gust Speed -    
Visibility 10 miles    
Events Rain    
Averages and records for this station are not official NWS values.
T = Trace of Precipitation, MM = Missing Value Source: NWS Daily Summary

Daily Weather History Graph

Daily Weather History Graph

Search for Another Location

Airport:

Trip Planner

Search our weather history database for the weather conditions in past years. The results will help you decide how hot, cold, wet, or windy it might be!

Date:

Astronomy

Feb. 21, 2013 Rise Set
Actual Time 7:00 AM EST 6:09 PM EST
Civil Twilight 6:35 AM EST 6:34 PM EST
Nautical Twilight 6:05 AM EST 7:04 PM EST
Astronomical Twilight 5:35 AM EST 7:34 PM EST
Moon 2:27 PM EST (2/21) 3:59 AM EST (2/21)
Length of Visible Light 11h 59m
Length of Day
11h 08m
Waxing Gibbous, 83% of the Moon is Illuminated
Feb 21
Waxing Gibbous
Feb 25
Full
Mar 4
Last Quarter
Mar 11
New
Mar 19
First Quarter

Hourly Weather History & Observations

Time (EST) Temp. Windchill Dew Point Humidity Pressure Visibility Wind Dir Wind Speed Gust Speed Precip Events Conditions
12:15 AM 31.5 °F 28.1 °F 13.5 °F 47% 30.11 in 10.0 mi North 3.5 mph - N/A   Clear
12:35 AM 32.2 °F - 12.9 °F 45% 30.12 in 10.0 mi Calm Calm - N/A   Clear
12:55 AM 32.0 °F 28.7 °F 12.7 °F 45% 30.11 in 10.0 mi North 3.5 mph - N/A   Clear
1:15 AM 31.1 °F - 12.2 °F 46% 30.12 in 10.0 mi Calm Calm - N/A   Clear
1:35 AM 30.0 °F - 13.6 °F 51% 30.11 in 10.0 mi Calm Calm - N/A   Clear
1:55 AM 30.0 °F - 14.7 °F 53% 30.12 in 10.0 mi Calm Calm - N/A   Clear
2:15 AM 28.0 °F - 15.1 °F 58% 30.12 in 10.0 mi Calm Calm - N/A   Clear
2:35 AM 27.9 °F - 14.7 °F 58% 30.13 in 10.0 mi Calm Calm - N/A   Clear
2:55 AM 27.5 °F - 14.0 °F 57% 30.13 in 10.0 mi Calm Calm - N/A   Clear
3:15 AM 26.4 °F - 16.2 °F 65% 30.13 in 10.0 mi Calm Calm - N/A   Clear
3:35 AM 26.1 °F - 15.6 °F 65% 30.13 in 10.0 mi Calm Calm - N/A   Clear
3:55 AM 25.3 °F - 18.0 °F 74% 30.14 in 10.0 mi Calm Calm - N/A   Clear
4:15 AM 25.5 °F - 17.6 °F 72% 30.14 in 10.0 mi Calm Calm - N/A   Clear
4:35 AM 25.5 °F - 18.7 °F 75% 30.14 in 10.0 mi Calm Calm - N/A   Clear
4:55 AM 24.6 °F - 16.9 °F 72% 30.14 in 10.0 mi Calm Calm - N/A   Clear
5:15 AM 23.9 °F - 16.0 °F 72% 30.15 in 10.0 mi Calm Calm - N/A   Clear
5:35 AM 23.7 °F - 16.9 °F 75% 30.16 in 10.0 mi Calm Calm - N/A   Clear
6:15 AM 22.3 °F - 18.1 °F 84% 30.17 in 10.0 mi Calm Calm - N/A   Clear
6:55 AM 21.2 °F - 17.6 °F 86% 30.18 in 10.0 mi Calm Calm - N/A   Clear
7:15 AM 23.0 °F - 18.5 °F 83% 30.19 in 10.0 mi Calm Calm - N/A   Clear
7:35 AM 23.9 °F - 18.9 °F 81% 30.19 in 10.0 mi Calm Calm - N/A   Clear
7:55 AM 25.7 °F - 20.5 °F 81% 30.19 in 10.0 mi Calm Calm - N/A   Clear
8:15 AM 29.7 °F - 22.1 °F 73% 30.20 in 10.0 mi Calm Calm - N/A   Clear
8:35 AM 31.8 °F - 19.8 °F 61% 30.20 in 10.0 mi Calm Calm - N/A   Clear
8:55 AM 33.4 °F - 19.4 °F 56% 30.21 in 10.0 mi Calm Calm - N/A   Clear
9:15 AM 35.8 °F 31.9 °F 15.1 °F 43% 30.21 in 10.0 mi North 4.6 mph - N/A   Clear
9:35 AM 37.4 °F 34.9 °F 15.6 °F 41% 30.20 in 10.0 mi NNE 3.5 mph - N/A   Clear
9:55 AM 38.5 °F - 15.8 °F 40% 30.20 in 10.0 mi Calm Calm - N/A   Clear
10:15 AM 40.3 °F 37.1 °F 14.9 °F 36% 30.20 in 10.0 mi NE 4.6 mph - N/A   Clear
10:35 AM 41.2 °F 38.2 °F 14.9 °F 34% 30.21 in 10.0 mi North 4.6 mph - N/A   Clear
10:55 AM 42.1 °F - 15.4 °F 34% 30.20 in 10.0 mi Calm Calm - N/A   Clear
11:15 AM 44.1 °F 41.5 °F 16.2 °F 33% 30.20 in 10.0 mi WNW 4.6 mph - N/A   Clear
11:35 AM 45.5 °F 44.2 °F 16.7 °F 32% 30.19 in 10.0 mi NNW 3.5 mph - N/A   Clear
11:55 AM 46.8 °F - 16.9 °F 30% 30.19 in 10.0 mi SW 3.5 mph - N/A   Clear
12:15 PM 47.8 °F - 15.8 °F 28% 30.17 in 10.0 mi Calm Calm - N/A   Clear
12:35 PM 48.9 °F - 16.2 °F 27% 30.16 in 10.0 mi SSW 3.5 mph - N/A   Clear
12:55 PM 49.8 °F - 16.3 °F 26% 30.14 in 10.0 mi Calm Calm - N/A   Clear
1:15 PM 50.5 °F - 15.3 °F 25% 30.13 in 10.0 mi North 3.5 mph - N/A   Clear
1:35 PM 51.4 °F - 15.8 °F 24% 30.12 in 10.0 mi NNW 3.5 mph - N/A   Clear
1:55 PM 51.3 °F - 14.2 °F 23% 30.12 in 10.0 mi Calm Calm - N/A   Clear
2:15 PM 52.0 °F - 14.9 °F 23% 30.11 in 10.0 mi East 3.5 mph - N/A   Clear
2:35 PM 53.6 °F - 15.6 °F 22% 30.10 in 10.0 mi ENE 3.5 mph - N/A   Clear
2:55 PM 54.5 °F - 16.0 °F 22% 30.10 in 10.0 mi ESE 3.5 mph - N/A   Clear
3:15 PM 54.1 °F - 15.6 °F 22% 30.10 in 10.0 mi Calm Calm - N/A   Clear
3:35 PM 54.7 °F - 15.6 °F 21% 30.10 in 10.0 mi Calm Calm - N/A   Clear
3:55 PM 54.5 °F - 14.7 °F 21% 30.11 in 10.0 mi North 3.5 mph - N/A   Clear
4:15 PM 53.8 °F - 14.2 °F 21% 30.11 in 10.0 mi Calm Calm - N/A   Clear
4:35 PM 53.1 °F - 14.4 °F 22% 30.12 in 10.0 mi Calm Calm - N/A   Clear
4:55 PM 53.1 °F - 17.8 °F 25% 30.12 in 10.0 mi SSE 3.5 mph - N/A   Clear
5:15 PM 52.2 °F - 17.4 °F 25% 30.12 in 10.0 mi Calm Calm - N/A   Clear
5:35 PM 51.3 °F - 20.7 °F 30% 30.11 in 10.0 mi Calm Calm - N/A   Clear
5:55 PM 49.6 °F - 20.8 °F 32% 30.12 in 10.0 mi Calm Calm - N/A   Clear
6:15 PM 48.6 °F - 20.8 °F 34% 30.12 in 10.0 mi Calm Calm - N/A   Clear
6:35 PM 47.3 °F - 19.0 °F 33% 30.14 in 10.0 mi Calm Calm - N/A   Clear
6:55 PM 46.6 °F - 18.9 °F 33% 30.14 in 10.0 mi Calm Calm - N/A   Clear
7:15 PM 46.0 °F 44.8 °F 19.8 °F 35% 30.14 in 10.0 mi NE 3.5 mph - N/A   Clear
7:35 PM 44.8 °F - 21.6 °F 40% 30.15 in 10.0 mi Calm Calm - N/A   Clear
7:55 PM 44.8 °F - 22.1 °F 41% 30.15 in 10.0 mi Calm Calm - N/A   Clear
8:15 PM 45.0 °F 41.8 °F 22.8 °F 42% 30.14 in 10.0 mi ENE 5.8 mph - N/A   Clear
8:35 PM 46.8 °F - 20.5 °F 35% 30.14 in 10.0 mi ENE 10.4 mph - N/A   Clear
8:55 PM 46.6 °F - 19.9 °F 35% 30.16 in 10.0 mi East 6.9 mph - N/A   Clear
9:15 PM 46.2 °F 43.3 °F 20.1 °F 35% 30.17 in 10.0 mi NE 5.8 mph - N/A   Clear
9:35 PM 45.9 °F 43.6 °F 19.8 °F 35% 30.18 in 10.0 mi ENE 4.6 mph - N/A   Clear
9:55 PM 45.7 °F 42.7 °F 19.9 °F 36% 30.18 in 10.0 mi ENE 5.8 mph - N/A   Clear
10:15 PM 45.5 °F 41.8 °F 19.9 °F 36% 30.17 in 10.0 mi ENE 6.9 mph - N/A   Clear
10:35 PM 46.4 °F 45.2 °F 19.4 °F 34% 30.21 in 10.0 mi East 3.5 mph - N/A   Clear
10:55 PM 45.7 °F - 19.6 °F 35% 30.22 in 10.0 mi Calm Calm - N/A   Light Drizzle
11:15 PM 44.6 °F 41.4 °F 22.3 °F 41% 30.22 in 10.0 mi ENE 5.8 mph - N/A   Light Drizzle
11:35 PM 43.9 °F - 22.6 °F 43% 30.23 in 10.0 mi Calm Calm - N/A Rain Light Rain
11:55 PM 41.9 °F - 26.8 °F 55% 30.25 in 10.0 mi Calm Calm - N/A Rain Light Rain